owner,sensor,date,latitude,longitude,air_temperature,qcFlag 
COMPS,ioos:station:USF.COMPS:C13:1,2015-10-01T00:05:00Z,26.0630,-83.0730,28.94,1111122 
COMPS,ioos:station:USF.COMPS:C13:1,2015-10-01T00:35:00Z,26.0630,-83.0730,28.87,1111122 
COMPS,ioos:station:USF.COMPS:C13:1,2015-10-01T01:05:00Z,26.0630,-83.0730,28.39,1111122 
COMPS,ioos:station:USF.COMPS:C13:1,2015-10-01T01:35:00Z,26.0630,-83.0730,28.47,1111122 
COMPS,ioos:station:USF.COMPS:C13:1,2015-10-01T02:05:00Z,26.0630,-83.0730,28.58,1111122 
COMPS,ioos:station:USF.COMPS:C13:1,2015-10-01T02:35:00Z,26.0630,-83.0730,28.84,1111122 
COMPS,ioos:station:USF.COMPS:C13:1,2015-10-01T04:05:00Z,26.0630,-83.0730,28.74,1111122 
COMPS,ioos:station:USF.COMPS:C13:1,2015-10-01T04:35:00Z,26.0630,-83.0730,28.67,1111122 
COMPS,ioos:station:USF.COMPS:C13:1,2015-10-01T05:05:00Z,26.0630,-83.0730,28.46,1111122 
COMPS,ioos:station:USF.COMPS:C13:1,2015-10-01T05:35:00Z,26.0630,-83.0730,28.54,1111122 
COMPS,ioos:station:USF.COMPS:C13:1,2015-10-01T06:05:00Z,26.0630,-83.0730,28.45,1111122 
COMPS,ioos:station:USF.COMPS:C13:1,2015-10-01T06:35:00Z,26.0630,-83.0730,28.49,1111122 
COMPS,ioos:station:USF.COMPS:C13:1,2015-10-01T08:05:00Z,26.0630,-83.0730,28.36,1111122 
COMPS,ioos:station:USF.COMPS:C13:1,2015-10-01T08:35:00Z,26.0630,-83.0730,28.36,1111122 
COMPS,ioos:station:USF.COMPS:C13:1,2015-10-01T13:05:00Z,26.0630,-83.0730,28.68,1111122 
COMPS,ioos:station:USF.COMPS:C13:1,2015-10-01T13:35:00Z,26.0630,-83.0730,28.72,1111122 
COMPS,ioos:station:USF.COMPS:C13:1,2015-10-01T14:05:00Z,26.0630,-83.0730,28.7,1111122 
COMPS,ioos:station:USF.COMPS:C13:1,2015-10-01T14:35:00Z,26.0630,-83.0730,28.7,1111122 
COMPS,ioos:station:USF.COMPS:C13:1,2015-10-01T18:05:00Z,26.0630,-83.0730,28.7,1111122 
COMPS,ioos:station:USF.COMPS:C13:1,2015-10-01T18:35:00Z,26.0630,-83.0730,28.73,1111122 
COMPS,ioos:station:USF.COMPS:C13:1,2015-10-01T20:05:00Z,26.0630,-83.0730,28.82,1111122 
COMPS,ioos:station:USF.COMPS:C13:1,2015-10-01T20:35:00Z,26.0630,-83.0730,28.84,1111122 
COMPS,ioos:station:USF.COMPS:C13:1,2015-10-01T22:05:00Z,26.0630,-83.0730,28.95,1111122 
COMPS,ioos:station:USF.COMPS:C13:1,2015-10-01T22:35:00Z,26.0630,-83.0730,29.09,1111122 
COMPS,ioos:station:USF.COMPS:C13:1,2015-10-01T23:05:00Z,26.0630,-83.0730,28.78,1111122 
COMPS,ioos:station:USF.COMPS:C13:1,2015-10-01T23:35:00Z,26.0630,-83.0730,28.61,1111122 
COMPS,ioos:station:USF.COMPS:C13:1,2015-10-02T00:05:00Z,26.0630,-83.0730,28.6,1111122 
COMPS,ioos:station:USF.COMPS:C13:1,2015-10-02T00:35:00Z,26.0630,-83.0730,28.67,1111122 
COMPS,ioos:station:USF.COMPS:C13:1,2015-10-02T01:05:00Z,26.0630,-83.0730,28.57,1111122 
COMPS,ioos:station:USF.COMPS:C13:1,2015-10-02T01:35:00Z,26.0630,-83.0730,28.7,1111122 
COMPS,ioos:station:USF.COMPS:C13:1,2015-10-02T04:05:00Z,26.0630,-83.0730,28.42,1111122 
COMPS,ioos:station:USF.COMPS:C13:1,2015-10-02T04:35:00Z,26.0630,-83.0730,28.45,1111122 
COMPS,ioos:station:USF.COMPS:C13:1,2015-10-02T05:05:00Z,26.0630,-83.0730,28.29,1111122 
COMPS,ioos:station:USF.COMPS:C13:1,2015-10-02T05:35:00Z,26.0630,-83.0730,28.31,1111122 
COMPS,ioos:station:USF.COMPS:C13:1,2015-10-02T08:05:00Z,26.0630,-83.0730,28.11,1111122 
COMPS,ioos:station:USF.COMPS:C13:1,2015-10-02T08:35:00Z,26.0630,-83.0730,27.99,1111122 
COMPS,ioos:station:USF.COMPS:C13:1,2015-10-02T09:05:00Z,26.0630,-83.0730,28.23,1111122 
COMPS,ioos:station:USF.COMPS:C13:1,2015-10-02T09:35:00Z,26.0630,-83.0730,28.17,1111122 
COMPS,ioos:station:USF.COMPS:C13:1,2015-10-02T10:05:00Z,26.0630,-83.0730,28.11,1111122 
COMPS,ioos:station:USF.COMPS:C13:1,2015-10-02T10:35:00Z,26.0630,-83.0730,28.2,1111122 
COMPS,ioos:station:USF.COMPS:C13:1,2015-10-02T11:05:00Z,26.0630,-83.0730,28.08,1111122 
COMPS,ioos:station:USF.COMPS:C13:1,2015-10-02T11:35:00Z,26.0630,-83.0730,28.2,1111122 
COMPS,ioos:station:USF.COMPS:C13:1,2015-10-02T13:05:00Z,26.0630,-83.0730,28.19,1111122 
COMPS,ioos:station:USF.COMPS:C13:1,2015-10-02T13:35:00Z,26.0630,-83.0730,28.36,1111122 
COMPS,ioos:station:USF.COMPS:C13:1,2015-10-02T14:05:00Z,26.0630,-83.0730,28.29,1111122 
COMPS,ioos:station:USF.COMPS:C13:1,2015-10-02T14:35:00Z,26.0630,-83.0730,28.23,1111122 
COMPS,ioos:station:USF.COMPS:C13:1,2015-10-02T15:05:00Z,26.0630,-83.0730,28.09,1111122 
COMPS,ioos:station:USF.COMPS:C13:1,2015-10-02T15:35:00Z,26.0630,-83.0730,28.06,1111122 
COMPS,ioos:station:USF.COMPS:C13:1,2015-10-03T04:05:00Z,26.0630,-83.0730,27.61,1111122 
COMPS,ioos:station:USF.COMPS:C13:1,2015-10-03T04:35:00Z,26.0630,-83.0730,27.51,1111122 
COMPS,ioos:station:USF.COMPS:C13:1,2015-10-03T07:05:00Z,26.0630,-83.0730,27.27,1111122 
COMPS,ioos:station:USF.COMPS:C13:1,2015-10-03T07:35:00Z,26.0630,-83.0730,27.27,1111122 
COMPS,ioos:station:USF.COMPS:C13:1,2015-10-03T09:05:00Z,26.0630,-83.0730,27.26,1111122 
COMPS,ioos:station:USF.COMPS:C13:1,2015-10-03T09:35:00Z,26.0630,-83.0730,27.24,1111122 
COMPS,ioos:station:USF.COMPS:C13:1,2015-10-03T22:05:00Z,26.0630,-83.0730,27.27,1111122 
COMPS,ioos:station:USF.COMPS:C13:1,2015-10-03T22:35:00Z,26.0630,-83.0730,25.95,1111122 
COMPS,ioos:station:USF.COMPS:C13:1,2015-10-03T23:05:00Z,26.0630,-83.0730,26.68,1111122 
COMPS,ioos:station:USF.COMPS:C13:1,2015-10-03T23:35:00Z,26.0630,-83.0730,26.54,1111122 
COMPS,ioos:station:USF.COMPS:C13:1,2015-10-04T00:05:00Z,26.0630,-83.0730,26.74,1111122 
COMPS,ioos:station:USF.COMPS:C13:1,2015-10-04T00:35:00Z,26.0630,-83.0730,26.88,1111122 
COMPS,ioos:station:USF.COMPS:C13:1,2015-10-04T01:05:00Z,26.0630,-83.0730,26.8,1111122 
COMPS,ioos:station:USF.COMPS:C13:1,2015-10-04T01:35:00Z,26.0630,-83.0730,27.07,1111122 
COMPS,ioos:station:USF.COMPS:C13:1,2015-10-04T06:05:00Z,26.0630,-83.0730,26.65,1111122 
COMPS,ioos:station:USF.COMPS:C13:1,2015-10-04T06:35:00Z,26.0630,-83.0730,26.86,1111122 
COMPS,ioos:station:USF.COMPS:C13:1,2015-10-04T13:05:00Z,26.0630,-83.0730,27.06,1111122 
COMPS,ioos:station:USF.COMPS:C13:1,2015-10-04T13:35:00Z,26.0630,-83.0730,26.52,1111122 
COMPS,ioos:station:USF.COMPS:C13:1,2015-10-04T23:05:00Z,26.0630,-83.0730,26.71,1111122 
COMPS,ioos:station:USF.COMPS:C13:1,2015-10-04T23:35:00Z,26.0630,-83.0730,26.77,1111122 
COMPS,ioos:station:USF.COMPS:C13:1,2015-10-05T01:05:00Z,26.0630,-83.0730,27.01,1111122 
COMPS,ioos:station:USF.COMPS:C13:1,2015-10-05T01:35:00Z,26.0630,-83.0730,26.54,1111122 
COMPS,ioos:station:USF.COMPS:C13:1,2015-10-05T08:05:00Z,26.0630,-83.0730,26.26,1111122 
COMPS,ioos:station:USF.COMPS:C13:1,2015-10-05T08:35:00Z,26.0630,-83.0730,25.98,1111122 
COMPS,ioos:station:USF.COMPS:C13:1,2015-10-05T18:05:00Z,26.0630,-83.0730,26.41,1111122 
COMPS,ioos:station:USF.COMPS:C13:1,2015-10-05T18:35:00Z,26.0630,-83.0730,26.77,1111122 
COMPS,ioos:station:USF.COMPS:C13:1,2015-10-05T23:05:00Z,26.0630,-83.0730,27.0,1111122 
COMPS,ioos:station:USF.COMPS:C13:1,2015-10-05T23:35:00Z,26.0630,-83.0730,25.8,1111122 
COMPS,ioos:station:USF.COMPS:C13:1,2015-10-06T00:05:00Z,26.0630,-83.0730,24.46,1111122 
COMPS,ioos:station:USF.COMPS:C13:1,2015-10-06T00:35:00Z,26.0630,-83.0730,24.75,1111122 
COMPS,ioos:station:USF.COMPS:C13:1,2015-10-06T18:05:00Z,26.0630,-83.0730,26.81,1111122 
COMPS,ioos:station:USF.COMPS:C13:1,2015-10-06T18:35:00Z,26.0630,-83.0730,26.91,1111122 
COMPS,ioos:station:USF.COMPS:C13:1,2015-10-06T21:05:00Z,26.0630,-83.0730,27.19,1111122 
COMPS,ioos:station:USF.COMPS:C13:1,2015-10-06T21:35:00Z,26.0630,-83.0730,27.3,1111122 
COMPS,ioos:station:USF.COMPS:C13:1,2015-10-06T23:05:00Z,26.0630,-83.0730,27.18,1111122 
COMPS,ioos:station:USF.COMPS:C13:1,2015-10-06T23:35:00Z,26.0630,-83.0730,27.19,1111122 
COMPS,ioos:station:USF.COMPS:C13:1,2015-10-07T05:05:00Z,26.0630,-83.0730,26.79,1111122 
COMPS,ioos:station:USF.COMPS:C13:1,2015-10-07T05:35:00Z,26.0630,-83.0730,26.95,1111122 
COMPS,ioos:station:USF.COMPS:C13:1,2015-10-07T08:05:00Z,26.0630,-83.0730,27.14,1111122 
COMPS,ioos:station:USF.COMPS:C13:1,2015-10-07T08:35:00Z,26.0630,-83.0730,27.13,1111122 
COMPS,ioos:station:USF.COMPS:C13:1,2015-10-07T09:05:00Z,26.0630,-83.0730,27.2,1111122 
COMPS,ioos:station:USF.COMPS:C13:1,2015-10-07T09:35:00Z,26.0630,-83.0730,27.15,1111122 
COMPS,ioos:station:USF.COMPS:C13:1,2015-10-07T14:05:00Z,26.0630,-83.0730,27.75,1111122 
COMPS,ioos:station:USF.COMPS:C13:1,2015-10-07T14:35:00Z,26.0630,-83.0730,27.8,1111122 
COMPS,ioos:station:USF.COMPS:C13:1,2015-10-07T15:05:00Z,26.0630,-83.0730,27.72,1111122 
COMPS,ioos:station:USF.COMPS:C13:1,2015-10-07T15:35:00Z,26.0630,-83.0730,27.73,1111122 
COMPS,ioos:station:USF.COMPS:C13:1,2015-10-07T16:05:00Z,26.0630,-83.0730,27.77,1111122 
COMPS,ioos:station:USF.COMPS:C13:1,2015-10-07T16:35:00Z,26.0630,-83.0730,28.02,1111122 
COMPS,ioos:station:USF.COMPS:C13:1,2015-10-07T17:05:00Z,26.0630,-83.0730,27.8,1111122 
COMPS,ioos:station:USF.COMPS:C13:1,2015-10-07T17:35:00Z,26.0630,-83.0730,27.98,1111122 
COMPS,ioos:station:USF.COMPS:C13:1,2015-10-07T18:05:00Z,26.0630,-83.0730,28.39,1111122 
COMPS,ioos:station:USF.COMPS:C13:1,2015-10-07T18:35:00Z,26.0630,-83.0730,28.5,1111122 
COMPS,ioos:station:USF.COMPS:C13:1,2015-10-07T20:05:00Z,26.0630,-83.0730,29.39,1111122 
COMPS,ioos:station:USF.COMPS:C13:1,2015-10-07T20:35:00Z,26.0630,-83.0730,27.31,1111122 
COMPS,ioos:station:USF.COMPS:C13:1,2015-10-07T21:05:00Z,26.0630,-83.0730,26.66,1111122 
COMPS,ioos:station:USF.COMPS:C13:1,2015-10-07T21:35:00Z,26.0630,-83.0730,26.89,1111122 
COMPS,ioos:station:USF.COMPS:C13:1,2015-10-07T22:05:00Z,26.0630,-83.0730,27.48,1111122 
COMPS,ioos:station:USF.COMPS:C13:1,2015-10-07T22:35:00Z,26.0630,-83.0730,27.66,1111122 
COMPS,ioos:station:USF.COMPS:C13:1,2015-10-07T23:05:00Z,26.0630,-83.0730,27.67,1111122 
COMPS,ioos:station:USF.COMPS:C13:1,2015-10-07T23:35:00Z,26.0630,-83.0730,27.85,1111122 
COMPS,ioos:station:USF.COMPS:C13:1,2015-10-08T00:05:00Z,26.0630,-83.0730,27.88,1111122 
COMPS,ioos:station:USF.COMPS:C13:1,2015-10-08T00:35:00Z,26.0630,-83.0730,27.84,1111122 
COMPS,ioos:station:USF.COMPS:C13:1,2015-10-08T01:05:00Z,26.0630,-83.0730,27.7,1111122 
COMPS,ioos:station:USF.COMPS:C13:1,2015-10-08T01:35:00Z,26.0630,-83.0730,27.81,1111122 
COMPS,ioos:station:USF.COMPS:C13:1,2015-10-08T02:05:00Z,26.0630,-83.0730,27.79,1111122 
COMPS,ioos:station:USF.COMPS:C13:1,2015-10-08T02:35:00Z,26.0630,-83.0730,27.71,1111122 
COMPS,ioos:station:USF.COMPS:C13:1,2015-10-08T04:05:00Z,26.0630,-83.0730,27.79,1111122 
COMPS,ioos:station:USF.COMPS:C13:1,2015-10-08T04:35:00Z,26.0630,-83.0730,27.81,1111122 
COMPS,ioos:station:USF.COMPS:C13:1,2015-10-08T05:05:00Z,26.0630,-83.0730,27.77,1111122 
COMPS,ioos:station:USF.COMPS:C13:1,2015-10-08T05:35:00Z,26.0630,-83.0730,28.02,1111122 
COMPS,ioos:station:USF.COMPS:C13:1,2015-10-08T07:05:00Z,26.0630,-83.0730,27.99,1111122 
COMPS,ioos:station:USF.COMPS:C13:1,2015-10-08T07:35:00Z,26.0630,-83.0730,28.04,1111122 
COMPS,ioos:station:USF.COMPS:C13:1,2015-10-08T09:05:00Z,26.0630,-83.0730,27.97,1111122 
COMPS,ioos:station:USF.COMPS:C13:1,2015-10-08T09:35:00Z,26.0630,-83.0730,28.01,1111122 
COMPS,ioos:station:USF.COMPS:C13:1,2015-10-08T12:05:00Z,26.0630,-83.0730,27.91,1111122 
COMPS,ioos:station:USF.COMPS:C13:1,2015-10-08T12:35:00Z,26.0630,-83.0730,28.17,1111122 
COMPS,ioos:station:USF.COMPS:C13:1,2015-10-08T13:05:00Z,26.0630,-83.0730,27.65,1111122 
COMPS,ioos:station:USF.COMPS:C13:1,2015-10-08T13:35:00Z,26.0630,-83.0730,27.9,1111122 
COMPS,ioos:station:USF.COMPS:C13:1,2015-10-08T14:05:00Z,26.0630,-83.0730,28.14,1111122 
COMPS,ioos:station:USF.COMPS:C13:1,2015-10-08T14:35:00Z,26.0630,-83.0730,28.38,1111122 
COMPS,ioos:station:USF.COMPS:C13:1,2015-10-08T15:05:00Z,26.0630,-83.0730,28.4,1111122 
COMPS,ioos:station:USF.COMPS:C13:1,2015-10-08T15:35:00Z,26.0630,-83.0730,28.75,1111122 
COMPS,ioos:station:USF.COMPS:C13:1,2015-10-08T17:05:00Z,26.0630,-83.0730,28.07,1111122 
COMPS,ioos:station:USF.COMPS:C13:1,2015-10-08T17:35:00Z,26.0630,-83.0730,27.74,1111122 
COMPS,ioos:station:USF.COMPS:C13:1,2015-10-08T18:05:00Z,26.0630,-83.0730,27.81,1111122 
COMPS,ioos:station:USF.COMPS:C13:1,2015-10-08T18:35:00Z,26.0630,-83.0730,27.43,1111122 
COMPS,ioos:station:USF.COMPS:C13:1,2015-10-08T19:05:00Z,26.0630,-83.0730,27.55,1111122 
COMPS,ioos:station:USF.COMPS:C13:1,2015-10-08T19:35:00Z,26.0630,-83.0730,27.73,1111122 
COMPS,ioos:station:USF.COMPS:C13:1,2015-10-08T20:05:00Z,26.0630,-83.0730,27.84,1111122 
COMPS,ioos:station:USF.COMPS:C13:1,2015-10-08T20:35:00Z,26.0630,-83.0730,28.33,1111122 
COMPS,ioos:station:USF.COMPS:C13:1,2015-10-08T21:05:00Z,26.0630,-83.0730,28.08,1111122 
COMPS,ioos:station:USF.COMPS:C13:1,2015-10-08T21:35:00Z,26.0630,-83.0730,28.25,1111122 
COMPS,ioos:station:USF.COMPS:C13:1,2015-10-08T22:05:00Z,26.0630,-83.0730,27.86,1111122 
COMPS,ioos:station:USF.COMPS:C13:1,2015-10-08T22:35:00Z,26.0630,-83.0730,27.77,1111122 
COMPS,ioos:station:USF.COMPS:C13:1,2015-10-09T00:05:00Z,26.0630,-83.0730,27.82,1111122 
COMPS,ioos:station:USF.COMPS:C13:1,2015-10-09T00:35:00Z,26.0630,-83.0730,27.83,1111122 
COMPS,ioos:station:USF.COMPS:C13:1,2015-10-09T04:05:00Z,26.0630,-83.0730,28.38,1111122 
COMPS,ioos:station:USF.COMPS:C13:1,2015-10-09T04:35:00Z,26.0630,-83.0730,28.24,1111122 
COMPS,ioos:station:USF.COMPS:C13:1,2015-10-09T08:05:00Z,26.0630,-83.0730,28.1,1111122 
COMPS,ioos:station:USF.COMPS:C13:1,2015-10-09T08:35:00Z,26.0630,-83.0730,28.05,1111122 
COMPS,ioos:station:USF.COMPS:C13:1,2015-10-09T10:05:00Z,26.0630,-83.0730,28.01,1111122 
COMPS,ioos:station:USF.COMPS:C13:1,2015-10-09T10:35:00Z,26.0630,-83.0730,28.11,1111122 
COMPS,ioos:station:USF.COMPS:C13:1,2015-10-09T13:05:00Z,26.0630,-83.0730,28.63,1111122 
COMPS,ioos:station:USF.COMPS:C13:1,2015-10-09T13:35:00Z,26.0630,-83.0730,28.58,1111122 
COMPS,ioos:station:USF.COMPS:C13:1,2015-10-09T14:05:00Z,26.0630,-83.0730,28.52,1111122 
COMPS,ioos:station:USF.COMPS:C13:1,2015-10-09T14:35:00Z,26.0630,-83.0730,28.59,1111122 
COMPS,ioos:station:USF.COMPS:C13:1,2015-10-09T15:05:00Z,26.0630,-83.0730,28.54,1111122 
COMPS,ioos:station:USF.COMPS:C13:1,2015-10-09T15:35:00Z,26.0630,-83.0730,28.47,1111122 
COMPS,ioos:station:USF.COMPS:C13:1,2015-10-09T16:05:00Z,26.0630,-83.0730,28.51,1111122 
COMPS,ioos:station:USF.COMPS:C13:1,2015-10-09T16:35:00Z,26.0630,-83.0730,28.62,1111122 
COMPS,ioos:station:USF.COMPS:C13:1,2015-10-09T17:05:00Z,26.0630,-83.0730,28.59,1111122 
COMPS,ioos:station:USF.COMPS:C13:1,2015-10-09T17:35:00Z,26.0630,-83.0730,28.7,1111122 
COMPS,ioos:station:USF.COMPS:C13:1,2015-10-09T19:05:00Z,26.0630,-83.0730,28.9,1111122 
COMPS,ioos:station:USF.COMPS:C13:1,2015-10-09T19:35:00Z,26.0630,-83.0730,29.68,1111122 
COMPS,ioos:station:USF.COMPS:C13:1,2015-10-09T20:05:00Z,26.0630,-83.0730,30.21,1111122 
COMPS,ioos:station:USF.COMPS:C13:1,2015-10-09T20:35:00Z,26.0630,-83.0730,30.17,1111122 
COMPS,ioos:station:USF.COMPS:C13:1,2015-10-09T21:05:00Z,26.0630,-83.0730,29.74,1111122 
COMPS,ioos:station:USF.COMPS:C13:1,2015-10-09T21:35:00Z,26.0630,-83.0730,30.92,1111122 
COMPS,ioos:station:USF.COMPS:C13:1,2015-10-09T22:05:00Z,26.0630,-83.0730,30.79,1111122 
COMPS,ioos:station:USF.COMPS:C13:1,2015-10-09T22:35:00Z,26.0630,-83.0730,29.85,1111122 
COMPS,ioos:station:USF.COMPS:C13:1,2015-10-10T05:05:00Z,26.0630,-83.0730,28.3,1111122 
COMPS,ioos:station:USF.COMPS:C13:1,2015-10-10T05:35:00Z,26.0630,-83.0730,28.22,1111122 
COMPS,ioos:station:USF.COMPS:C13:1,2015-10-10T06:05:00Z,26.0630,-83.0730,28.19,1111122 
COMPS,ioos:station:USF.COMPS:C13:1,2015-10-10T06:35:00Z,26.0630,-83.0730,28.19,1111122 
COMPS,ioos:station:USF.COMPS:C13:1,2015-10-10T07:05:00Z,26.0630,-83.0730,28.18,1111122 
COMPS,ioos:station:USF.COMPS:C13:1,2015-10-10T07:35:00Z,26.0630,-83.0730,28.13,1111122 
COMPS,ioos:station:USF.COMPS:C13:1,2015-10-10T08:05:00Z,26.0630,-83.0730,28.15,1111122 
COMPS,ioos:station:USF.COMPS:C13:1,2015-10-10T08:35:00Z,26.0630,-83.0730,28.05,1111122 
COMPS,ioos:station:USF.COMPS:C13:1,2015-10-10T09:05:00Z,26.0630,-83.0730,28.08,1111122 
COMPS,ioos:station:USF.COMPS:C13:1,2015-10-10T09:35:00Z,26.0630,-83.0730,28.14,1111122 
COMPS,ioos:station:USF.COMPS:C13:1,2015-10-10T16:05:00Z,26.0630,-83.0730,28.25,1111122 
COMPS,ioos:station:USF.COMPS:C13:1,2015-10-10T16:35:00Z,26.0630,-83.0730,28.38,1111122 
COMPS,ioos:station:USF.COMPS:C13:1,2015-10-10T19:05:00Z,26.0630,-83.0730,28.21,1111122 
COMPS,ioos:station:USF.COMPS:C13:1,2015-10-10T19:35:00Z,26.0630,-83.0730,28.34,1111122 
COMPS,ioos:station:USF.COMPS:C13:1,2015-10-10T20:05:00Z,26.0630,-83.0730,28.27,1111122 
COMPS,ioos:station:USF.COMPS:C13:1,2015-10-10T20:35:00Z,26.0630,-83.0730,28.36,1111122 
COMPS,ioos:station:USF.COMPS:C13:1,2015-10-10T21:05:00Z,26.0630,-83.0730,28.4,1111122 
COMPS,ioos:station:USF.COMPS:C13:1,2015-10-10T21:35:00Z,26.0630,-83.0730,28.34,1111122 
COMPS,ioos:station:USF.COMPS:C13:1,2015-10-10T23:05:00Z,26.0630,-83.0730,28.08,1111122 
COMPS,ioos:station:USF.COMPS:C13:1,2015-10-10T23:35:00Z,26.0630,-83.0730,28.2,1111122 
COMPS,ioos:station:USF.COMPS:C13:1,2015-10-11T12:05:00Z,26.0630,-83.0730,27.51,1111122 
COMPS,ioos:station:USF.COMPS:C13:1,2015-10-11T12:35:00Z,26.0630,-83.0730,27.6,1111122 
COMPS,ioos:station:USF.COMPS:C13:1,2015-10-11T13:05:00Z,26.0630,-83.0730,27.63,1111122 
COMPS,ioos:station:USF.COMPS:C13:1,2015-10-11T13:35:00Z,26.0630,-83.0730,27.67,1111122 
COMPS,ioos:station:USF.COMPS:C13:1,2015-10-11T14:05:00Z,26.0630,-83.0730,27.62,1111122 
COMPS,ioos:station:USF.COMPS:C13:1,2015-10-11T14:35:00Z,26.0630,-83.0730,27.75,1111122 
COMPS,ioos:station:USF.COMPS:C13:1,2015-10-11T15:05:00Z,26.0630,-83.0730,27.68,1111122 
COMPS,ioos:station:USF.COMPS:C13:1,2015-10-11T15:35:00Z,26.0630,-83.0730,27.73,1111122 
COMPS,ioos:station:USF.COMPS:C13:1,2015-10-11T16:05:00Z,26.0630,-83.0730,27.68,1111122 
COMPS,ioos:station:USF.COMPS:C13:1,2015-10-11T16:35:00Z,26.0630,-83.0730,27.75,1111122 
COMPS,ioos:station:USF.COMPS:C13:1,2015-10-11T21:05:00Z,26.0630,-83.0730,27.75,1111122 
COMPS,ioos:station:USF.COMPS:C13:1,2015-10-11T21:35:00Z,26.0630,-83.0730,27.93,1111122 
COMPS,ioos:station:USF.COMPS:C13:1,2015-10-11T22:05:00Z,26.0630,-83.0730,27.75,1111122 
COMPS,ioos:station:USF.COMPS:C13:1,2015-10-11T22:35:00Z,26.0630,-83.0730,27.49,1111122 
COMPS,ioos:station:USF.COMPS:C13:1,2015-10-11T23:05:00Z,26.0630,-83.0730,27.33,1111122 
COMPS,ioos:station:USF.COMPS:C13:1,2015-10-11T23:35:00Z,26.0630,-83.0730,27.46,1111122 
COMPS,ioos:station:USF.COMPS:C13:1,2015-10-12T00:05:00Z,26.0630,-83.0730,27.28,1111122 
COMPS,ioos:station:USF.COMPS:C13:1,2015-10-12T00:35:00Z,26.0630,-83.0730,26.09,1111122 
COMPS,ioos:station:USF.COMPS:C13:1,2015-10-12T01:05:00Z,26.0630,-83.0730,26.44,1111122 
COMPS,ioos:station:USF.COMPS:C13:1,2015-10-12T01:35:00Z,26.0630,-83.0730,26.56,1111122 
COMPS,ioos:station:USF.COMPS:C13:1,2015-10-12T02:05:00Z,26.0630,-83.0730,26.74,1111122 
COMPS,ioos:station:USF.COMPS:C13:1,2015-10-12T02:35:00Z,26.0630,-83.0730,26.89,1111122 
COMPS,ioos:station:USF.COMPS:C13:1,2015-10-12T03:05:00Z,26.0630,-83.0730,27.04,1111122 
COMPS,ioos:station:USF.COMPS:C13:1,2015-10-12T03:35:00Z,26.0630,-83.0730,27.27,1111122 
COMPS,ioos:station:USF.COMPS:C13:1,2015-10-12T04:05:00Z,26.0630,-83.0730,27.22,1111122 
COMPS,ioos:station:USF.COMPS:C13:1,2015-10-12T04:35:00Z,26.0630,-83.0730,27.19,1111122 
COMPS,ioos:station:USF.COMPS:C13:1,2015-10-12T05:05:00Z,26.0630,-83.0730,27.1,1111122 
COMPS,ioos:station:USF.COMPS:C13:1,2015-10-12T05:35:00Z,26.0630,-83.0730,27.1,1111122 
COMPS,ioos:station:USF.COMPS:C13:1,2015-10-12T06:05:00Z,26.0630,-83.0730,27.1,1111122 
COMPS,ioos:station:USF.COMPS:C13:1,2015-10-12T06:35:00Z,26.0630,-83.0730,27.12,1111122 
COMPS,ioos:station:USF.COMPS:C13:1,2015-10-12T07:05:00Z,26.0630,-83.0730,26.75,1111122 
COMPS,ioos:station:USF.COMPS:C13:1,2015-10-12T07:35:00Z,26.0630,-83.0730,26.77,1111122 
COMPS,ioos:station:USF.COMPS:C13:1,2015-10-12T08:05:00Z,26.0630,-83.0730,26.67,1111122 
COMPS,ioos:station:USF.COMPS:C13:1,2015-10-12T08:35:00Z,26.0630,-83.0730,26.67,1111122 
COMPS,ioos:station:USF.COMPS:C13:1,2015-10-12T18:05:00Z,26.0630,-83.0730,27.22,1111122 
COMPS,ioos:station:USF.COMPS:C13:1,2015-10-12T18:35:00Z,26.0630,-83.0730,27.21,1111122 
COMPS,ioos:station:USF.COMPS:C13:1,2015-10-13T04:05:00Z,26.0630,-83.0730,27.33,1111122 
COMPS,ioos:station:USF.COMPS:C13:1,2015-10-13T04:35:00Z,26.0630,-83.0730,27.34,1111122 
COMPS,ioos:station:USF.COMPS:C13:1,2015-10-13T05:05:00Z,26.0630,-83.0730,27.3,1111122 
COMPS,ioos:station:USF.COMPS:C13:1,2015-10-13T05:35:00Z,26.0630,-83.0730,27.35,1111122 
COMPS,ioos:station:USF.COMPS:C13:1,2015-10-13T06:05:00Z,26.0630,-83.0730,27.38,1111122 
COMPS,ioos:station:USF.COMPS:C13:1,2015-10-13T06:35:00Z,26.0630,-83.0730,27.43,1111122 
COMPS,ioos:station:USF.COMPS:C13:1,2015-10-13T07:05:00Z,26.0630,-83.0730,27.44,1111122 
COMPS,ioos:station:USF.COMPS:C13:1,2015-10-13T07:35:00Z,26.0630,-83.0730,27.35,1111122 
COMPS,ioos:station:USF.COMPS:C13:1,2015-10-13T08:05:00Z,26.0630,-83.0730,27.45,1111122 
COMPS,ioos:station:USF.COMPS:C13:1,2015-10-13T08:35:00Z,26.0630,-83.0730,27.45,1111122 
COMPS,ioos:station:USF.COMPS:C13:1,2015-10-13T12:05:00Z,26.0630,-83.0730,28.0,1111122 
COMPS,ioos:station:USF.COMPS:C13:1,2015-10-13T12:35:00Z,26.0630,-83.0730,28.11,1111122 
COMPS,ioos:station:USF.COMPS:C13:1,2015-10-13T16:05:00Z,26.0630,-83.0730,28.24,1111122 
COMPS,ioos:station:USF.COMPS:C13:1,2015-10-13T16:35:00Z,26.0630,-83.0730,28.56,1111122 
COMPS,ioos:station:USF.COMPS:C13:1,2015-10-13T17:05:00Z,26.0630,-83.0730,28.29,1111122 
COMPS,ioos:station:USF.COMPS:C13:1,2015-10-13T17:35:00Z,26.0630,-83.0730,28.35,1111122 
COMPS,ioos:station:USF.COMPS:C13:1,2015-10-13T19:05:00Z,26.0630,-83.0730,28.11,1111122 
COMPS,ioos:station:USF.COMPS:C13:1,2015-10-13T19:35:00Z,26.0630,-83.0730,28.38,1111122 
COMPS,ioos:station:USF.COMPS:C13:1,2015-10-13T22:05:00Z,26.0630,-83.0730,28.24,1111122 
COMPS,ioos:station:USF.COMPS:C13:1,2015-10-13T22:35:00Z,26.0630,-83.0730,28.25,1111122 
COMPS,ioos:station:USF.COMPS:C13:1,2015-10-14T04:05:00Z,26.0630,-83.0730,27.83,1111122 
COMPS,ioos:station:USF.COMPS:C13:1,2015-10-14T04:35:00Z,26.0630,-83.0730,27.66,1111122 
COMPS,ioos:station:USF.COMPS:C13:1,2015-10-14T05:05:00Z,26.0630,-83.0730,27.77,1111122 
COMPS,ioos:station:USF.COMPS:C13:1,2015-10-14T05:35:00Z,26.0630,-83.0730,27.77,1111122 
COMPS,ioos:station:USF.COMPS:C13:1,2015-10-14T06:05:00Z,26.0630,-83.0730,27.66,1111122 
COMPS,ioos:station:USF.COMPS:C13:1,2015-10-14T06:35:00Z,26.0630,-83.0730,27.7,1111122 
COMPS,ioos:station:USF.COMPS:C13:1,2015-10-14T08:05:00Z,26.0630,-83.0730,27.49,1111122 
COMPS,ioos:station:USF.COMPS:C13:1,2015-10-14T08:35:00Z,26.0630,-83.0730,27.43,1111122 
COMPS,ioos:station:USF.COMPS:C13:1,2015-10-14T09:05:00Z,26.0630,-83.0730,27.28,1111122 
COMPS,ioos:station:USF.COMPS:C13:1,2015-10-14T09:35:00Z,26.0630,-83.0730,27.24,1111122 
COMPS,ioos:station:USF.COMPS:C13:1,2015-10-14T10:05:00Z,26.0630,-83.0730,27.24,1111122 
COMPS,ioos:station:USF.COMPS:C13:1,2015-10-14T10:35:00Z,26.0630,-83.0730,27.24,1111122 
COMPS,ioos:station:USF.COMPS:C13:1,2015-10-14T11:05:00Z,26.0630,-83.0730,27.32,1111122 
COMPS,ioos:station:USF.COMPS:C13:1,2015-10-14T11:35:00Z,26.0630,-83.0730,27.24,1111122 
COMPS,ioos:station:USF.COMPS:C13:1,2015-10-14T12:05:00Z,26.0630,-83.0730,27.65,1111122 
COMPS,ioos:station:USF.COMPS:C13:1,2015-10-14T12:35:00Z,26.0630,-83.0730,27.68,1111122 
COMPS,ioos:station:USF.COMPS:C13:1,2015-10-14T22:05:00Z,26.0630,-83.0730,28.11,1111122 
COMPS,ioos:station:USF.COMPS:C13:1,2015-10-14T22:35:00Z,26.0630,-83.0730,27.9,1111122 
COMPS,ioos:station:USF.COMPS:C13:1,2015-10-14T23:05:00Z,26.0630,-83.0730,27.8,1111122 
COMPS,ioos:station:USF.COMPS:C13:1,2015-10-14T23:35:00Z,26.0630,-83.0730,27.79,1111122 
COMPS,ioos:station:USF.COMPS:C13:1,2015-10-15T00:05:00Z,26.0630,-83.0730,27.75,1111122 
COMPS,ioos:station:USF.COMPS:C13:1,2015-10-15T00:35:00Z,26.0630,-83.0730,27.73,1111122 
COMPS,ioos:station:USF.COMPS:C13:1,2015-10-15T01:05:00Z,26.0630,-83.0730,27.68,1111122 
COMPS,ioos:station:USF.COMPS:C13:1,2015-10-15T01:35:00Z,26.0630,-83.0730,27.72,1111122 
COMPS,ioos:station:USF.COMPS:C13:1,2015-10-15T02:05:00Z,26.0630,-83.0730,27.63,1111122 
COMPS,ioos:station:USF.COMPS:C13:1,2015-10-15T02:35:00Z,26.0630,-83.0730,27.45,1111122 
COMPS,ioos:station:USF.COMPS:C13:1,2015-10-15T04:05:00Z,26.0630,-83.0730,27.34,1111122 
COMPS,ioos:station:USF.COMPS:C13:1,2015-10-15T04:35:00Z,26.0630,-83.0730,27.3,1111122 